Tracking 19415 objects as of 15-Dec-2018
HD Live streaming from Space Station
objects crossing your sky now

APEX

Track APEX now!
10-day predictions
APEX is classified as:


NORAD ID: 23191
Int'l Code: 1994-046A
Perigee: 338.2 km
Apogee: 1,156.0 km
Inclination: 69.9 °
Period: 99.6 minutes
Semi major axis: 7118 km
RCS: 2.5502 m2 (large)
Launch date: August 3, 1994
Source: United States (US)
Launch site: AIR FORCE WESTERN TEST RANGE (AFWTR)
aabbcc
Your satellite tracking list
Your tracking list is empty




NASA's NSSDC Master Catalog

Two Line Element Set (TLE):
1 23191U 94046A   18348.51384762  .00004946  00000-0  15672-3 0  9996
2 23191  69.9213  28.6312 0574450 203.5880 153.7936 14.45614745195179
Source of the keplerian elements: AFSPC